Home > Weather > New York > Past weeks

Flag for USA Past Weather in New York, New York, USA — Yesterday and Last 2 Weeks

Now
75 °F

Light rain. Fog.


Feels Like: 73 °F
Forecast: 78 / 93 °F
Wind: No wind

Location: New York City - Central Park

Current Time: Jul 25, 2016 at 8:48:34 PM

Latest Report: Jul 25, 2016 at 7:51 PM


Visibility: 5 mi

Pressure: 29.88 "Hg

Humidity: 94%

Dew Point: 73 °F

Location of New YorkLocation

Past Weather in New York — Graph

°F

New York Temperature Yesterday

Maximum temperature yesterday: 93 °F (at 2:51 PM)
Minimum temperature yesterday: 76 °F (at 5:51 AM)
Average temperature yesterday: 83 °F

High & Low Weather Summary for the Past Weeks

 TemperatureHumidityPressure
High96 °F (Jul 23, 3:51 PM)94% (Jul 14, 4:51 PM)30.24 "Hg (Jul 14, 4:51 PM)
Low66 °F (Jul 11, 4:51 AM)24% (Jul 23, 3:51 PM)29.78 "Hg (Jul 22, 6:51 PM)
Average80 °F60%30.00 "Hg
* Reported Jul 10 6:51 PM — Jul 25 6:51 PM, New York, Weather by CustomWeather, © 2016

Note: Actual official high and low records may vary slightly from our data, if they occured in-between our weather recording intervals... More about our weather records

Advertising

New York Weather History for the Previous 24 Hours

Scroll right to see more
 ConditionsComfort  
Time TempWeatherWind HumidityBarometerVisibility
6:51 PM
Mon, Jul 25
76 °FFog.No wind94%29.89 "Hg3 mi
5:51 PM76 °FRain. Fog.3 mph94%29.88 "Hg1 mi
4:51 PM79 °FFog.5 mph94%29.84 "Hg4 mi
3:51 PM91 °FSunny.6 mph57%29.81 "Hg7 mi
2:51 PM92 °FSunny.6 mph54%29.85 "Hg7 mi
1:51 PM93 °FSunny.3 mph49%29.87 "Hg7 mi
12:51 PM88 °FSunny.N/A59%29.89 "Hg7 mi
11:51 AM88 °FSunny.3 mph59%29.90 "Hg7 mi
10:51 AM84 °FPassing clouds.No wind67%29.92 "Hg7 mi
9:51 AM82 °FSunny.No wind67%29.92 "Hg7 mi
8:51 AM81 °FPassing clouds.No wind69%29.93 "Hg7 mi
7:51 AM80 °FOvercast.6 mph69%29.93 "Hg7 mi
6:51 AM79 °FOvercast.8 mph67%29.94 "Hg8 mi
5:51 AM80 °FLight rain. Mostly cloudy.5 mph58%29.94 "Hg9 mi
4:51 AM80 °FOvercast.3 mph60%29.93 "Hg9 mi
3:51 AM81 °FPassing clouds.3 mph56%29.93 "Hg10 mi
2:51 AM81 °FClear.3 mph58%29.93 "Hg10 mi
1:51 AM81 °FClear.6 mph60%29.95 "Hg9 mi
12:51 AM81 °FClear.5 mph60%29.96 "Hg9 mi
11:51 PM
Sun, Jul 24
81 °FClear.N/A62%29.96 "Hg9 mi
10:51 PM82 °FClear.5 mph60%29.97 "Hg9 mi
9:51 PM83 °FClear.6 mph57%29.96 "Hg9 mi
8:51 PM83 °FSunny.6 mph57%29.94 "Hg9 mi
Weather by CustomWeather, © 2016

See weather overviewHow to use our weather pages